Home > Weather > Lafayette > Past weeks

Flag for USA Weather for the Past 2 Weeks in Lafayette, Indiana, USA

Now
53 °F

Passing clouds.


Feels Like: 51 °F
Forecast: 42 / 52 °F
Wind: 8 mph from Southwest

Location: Purdue University Airport

Current Time: May 4, 2016 at 4:00:23 AM

Latest Report: May 4, 2016 at 2:54 AM


Visibility: 10 mi

Pressure: 29.71 "Hg

Humidity: 74%

Dew Point: 45 °F

Location of LafayetteLocation

Historic Weather in Lafayette — Graph

°F

Lafayette Temperature Yesterday

Maximum temperature yesterday: 65 °F (at 4:54 PM)
Minimum temperature yesterday: 47 °F (at 6:54 AM)
Average temperature yesterday: 54 °F

High & Low Weather Summary for the Past Weeks

 TemperatureHumidityPressure
High79 °F (Apr 25, 3:54 PM)100% (Apr 21, 7:54 AM)30.19 "Hg (Apr 21, 7:54 AM)
Low41 °F (Apr 23, 6:54 AM)32% (Apr 19, 3:54 PM)29.68 "Hg (Apr 25, 11:54 PM)
Average57 °F77%29.94 "Hg
* Reported Apr 19 1:54 AM — May 4 1:54 AM, Lafayette, Weather by CustomWeather, © 2016

Note: Actual official high and low records may vary slightly from our data, if they occured in-between our weather recording intervals... More about our weather records

Advertising

Lafayette Weather History for the Previous 24 Hours

Scroll right to see more
 ConditionsComfort  
Time TempWeatherWind HumidityBarometerVisibility
1:54 AM
Wed, May 4
52 °FPassing clouds.7 mph75%29.74 "Hg10 mi
12:54 AM54 °FOvercast.5 mph72%29.77 "Hg10 mi
11:54 PM
Tue, May 3
53 °FOvercast.5 mph72%29.79 "Hg10 mi
10:54 PM53 °FMostly cloudy.3 mph69%29.82 "Hg10 mi
9:54 PM55 °FPassing clouds.No wind67%29.83 "Hg10 mi
8:54 PM58 °FOvercast.5 mph56%29.83 "Hg10 mi
7:54 PM59 °FMore clouds than sun.3 mph54%29.83 "Hg10 mi
6:54 PM60 °FPartly sunny.5 mph49%29.85 "Hg10 mi
5:54 PM62 °FBroken clouds.8 mph39%29.85 "Hg10 mi
4:54 PM65 °FScattered clouds.7 mph39%29.86 "Hg10 mi
3:54 PM64 °FPassing clouds.7 mph41%29.89 "Hg10 mi
2:54 PM63 °FPartly sunny.10 mph43%29.91 "Hg10 mi
1:54 PM59 °FPartly sunny.12 mph48%29.93 "Hg10 mi
12:54 PM59 °FSunny.10 mph49%29.95 "Hg10 mi
11:54 AM57 °FPassing clouds.8 mph55%29.96 "Hg10 mi
10:54 AM55 °FPartly sunny.8 mph62%29.97 "Hg10 mi
9:54 AM51 °FOvercast.8 mph71%29.98 "Hg10 mi
8:54 AM48 °FMore clouds than sun.9 mph80%29.98 "Hg10 mi
7:54 AM48 °FMostly cloudy.8 mph83%29.98 "Hg10 mi
6:54 AM47 °FOvercast.3 mph90%29.96 "Hg10 mi
5:54 AM48 °FOvercast.5 mph89%29.95 "Hg10 mi
4:54 AM48 °FOvercast.5 mph89%29.95 "Hg10 mi
Weather by CustomWeather, © 2016

See weather overviewHow to use our weather pages